• In Deutschland
  • Länderverzeichnis
  • Für 7 Tage
  • Wassertemperatur
  • Satellitenkarten
  • Wetterkarte
  • Widgets
  • user-avatar
    Anmelden

    Stündliche Wetter Tirana

    Heute, 27 Juni, Dienstag

    Zeit Temperatur Niederschläge Wind Luftdruck Luftfeuchtigkeit
    00:00 +22°C° 0 mm 1 m/S 751 mmHg 90%
    01:00 +22°C° 0 mm 1 m/S 751 mmHg 89%
    02:00 +21°C° 0 mm 1 m/S 751 mmHg 89%
    03:00 +21°C° 0 mm 1 m/S 751 mmHg 89%
    04:00 +21°C° 0 mm 1 m/S 751 mmHg 89%
    05:00 +21°C° 0 mm 0 m/S 751 mmHg 79%
    06:00 +24°C° 0 mm 0 m/S 751 mmHg 69%
    07:00 +27°C° 0 mm 0 m/S 751 mmHg 60%
    08:00 +31°C° 0 mm 1 m/S 751 mmHg 52%
    09:00 +32°C° 0 mm 1 m/S 751 mmHg 45%
    10:00 +34°C° 0 mm 1 m/S 751 mmHg 38%
    11:00 +35°C° 0 mm 2 m/S 751 mmHg 35%
    12:00 +36°C° 0 mm 2 m/S 751 mmHg 33%
    13:00 +37°C° 0 mm 3 m/S 751 mmHg 30%
    14:00 +36°C° 0 mm 3 m/S 750 mmHg 32%
    15:00 +36°C° 0 mm 2 m/S 750 mmHg 33%
    16:00 +35°C° 0 mm 2 m/S 750 mmHg 34%
    17:00 +31°C° 0 mm 2 m/S 750 mmHg 45%
    18:00 +28°C° 0 mm 2 m/S 750 mmHg 56%
    19:00 +25°C° 0 mm 2 m/S 750 mmHg 67%
    20:00 +25°C° 0 mm 2 m/S 750 mmHg 68%
    21:00 +24°C° 0 mm 3 m/S 750 mmHg 68%
    22:00 +22°C° 0 mm 3 m/S 750 mmHg 69%
    23:00 +22°C° 0 mm 3 m/S 750 mmHg 67%

    Morgen, 28 Juni, Mittwoch

    Zeit Temperatur Niederschläge Wind Luftdruck Luftfeuchtigkeit
    00:00 +22°C° 0 mm 3 m/S 750 mmHg 65%
    01:00 +22°C° 0 mm 4 m/S 750 mmHg 63%
    02:00 +22°C° 0 mm 4 m/S 750 mmHg 61%
    03:00 +22°C° 0 mm 4 m/S 750 mmHg 59%
    04:00 +22°C° 0 mm 4 m/S 750 mmHg 57%
    05:00 +25°C° 0 mm 4 m/S 750 mmHg 52%
    06:00 +28°C° 0 mm 4 m/S 750 mmHg 47%
    07:00 +30°C° 0 mm 3 m/S 750 mmHg 42%
    08:00 +33°C° 0 mm 4 m/S 750 mmHg 38%
    09:00 +34°C° 0 mm 4 m/S 750 mmHg 34%
    10:00 +36°C° 0 mm 4 m/S 750 mmHg 30%
    11:00 +36°C° 0 mm 5 m/S 750 mmHg 30%
    12:00 +37°C° 0 mm 5 m/S 750 mmHg 30%
    13:00 +38°C° 0 mm 6 m/S 750 mmHg 31%
    14:00 +36°C° 0 mm 5 m/S 749 mmHg 33%
    15:00 +36°C° 0 mm 5 m/S 749 mmHg 34%
    16:00 +35°C° 0 mm 4 m/S 749 mmHg 36%
    17:00 +33°C° 0 mm 4 m/S 749 mmHg 45%
    18:00 +30°C° 0 mm 4 m/S 749 mmHg 54%
    19:00 +27°C° 0 mm 3 m/S 749 mmHg 63%
    20:00 +26°C° 0 mm 3 m/S 750 mmHg 64%
    21:00 +26°C° 0 mm 3 m/S 750 mmHg 64%
    22:00 +25°C° 0 mm 3 m/S 750 mmHg 65%
    23:00 +25°C° 0 mm 4 m/S 750 mmHg 63%

    übermorgen, 29 Juni, Donnerstag

    Zeit Temperatur Niederschläge Wind Luftdruck Luftfeuchtigkeit
    00:00 +25°C° 0 mm 4 m/S 750 mmHg 61%
    01:00 +25°C° 0 mm 4 m/S 750 mmHg 59%
    02:00 +25°C° 0 mm 4 m/S 750 mmHg 58%
    03:00 +25°C° 0 mm 4 m/S 749 mmHg 56%
    04:00 +25°C° 0 mm 4 m/S 749 mmHg 55%
    05:00 +27°C° 0,1 mm 5 m/S 749 mmHg 51%
    06:00 +29°C° 0,1 mm 5 m/S 749 mmHg 47%
    07:00 +32°C° 0,1 mm 5 m/S 749 mmHg 43%
    08:00 +34°C° 0 mm 6 m/S 749 mmHg 37%
    09:00 +38°C° 0 mm 7 m/S 749 mmHg 31%
    10:00 +40°C° 0 mm 8 m/S 749 mmHg 25%
    11:00 +40°C° 0 mm 9 m/S 749 mmHg 25%
    12:00 +40°C° 0 mm 9 m/S 749 mmHg 26%
    13:00 +40°C° 0 mm 9 m/S 749 mmHg 27%
    14:00 +39°C° 0 mm 8 m/S 749 mmHg 29%
    15:00 +39°C° 0 mm 8 m/S 749 mmHg 30%
    16:00 +38°C° 0 mm 7 m/S 749 mmHg 32%
    17:00 +34°C° 0 mm 7 m/S 749 mmHg 41%
    18:00 +32°C° 0 mm 6 m/S 750 mmHg 50%
    19:00 +28°C° 0 mm 6 m/S 750 mmHg 60%
    20:00 +27°C° 0 mm 6 m/S 750 mmHg 60%
    21:00 +26°C° 0 mm 5 m/S 751 mmHg 61%
    22:00 +25°C° 0 mm 5 m/S 751 mmHg 61%
    23:00 +25°C° 0 mm 5 m/S 751 mmHg 61%

    30 Juni, Freitag

    Zeit Temperatur Niederschläge Wind Luftdruck Luftfeuchtigkeit
    00:00 +23°C° 0 mm 4 m/S 752 mmHg 62%
    01:00 +23°C° 0 mm 4 m/S 752 mmHg 62%
    02:00 +24°C° 0 mm 3 m/S 752 mmHg 63%
    03:00 +22°C° 0 mm 3 m/S 752 mmHg 64%
    04:00 +23°C° 0 mm 2 m/S 752 mmHg 65%
    05:00 +25°C° 0 mm 2 m/S 752 mmHg 57%
    06:00 +28°C° 0 mm 2 m/S 753 mmHg 49%
    07:00 +31°C° 0 mm 2 m/S 753 mmHg 42%
    08:00 +34°C° 0 mm 2 m/S 753 mmHg 36%
    09:00 +35°C° 0 mm 1 m/S 753 mmHg 31%
    10:00 +37°C° 0 mm 1 m/S 753 mmHg 25%
    11:00 +39°C° 0 mm 2 m/S 753 mmHg 24%
    12:00 +40°C° 0 mm 2 m/S 752 mmHg 23%
    13:00 +40°C° 0 mm 3 m/S 752 mmHg 21%
    14:00 +40°C° 0 mm 3 m/S 752 mmHg 23%
    15:00 +39°C° 0 mm 3 m/S 752 mmHg 25%
    16:00 +39°C° 0 mm 3 m/S 752 mmHg 26%
    17:00 +36°C° 0 mm 2 m/S 751 mmHg 37%
    18:00 +32°C° 0 mm 2 m/S 751 mmHg 49%
    19:00 +28°C° 0 mm 2 m/S 751 mmHg 60%
    20:00 +28°C° 0 mm 2 m/S 752 mmHg 56%
    21:00 +28°C° 0 mm 2 m/S 752 mmHg 52%
    22:00 +28°C° 0 mm 3 m/S 752 mmHg 48%
    23:00 +28°C° 0 mm 3 m/S 752 mmHg 47%

    1 Juli, Samstag

    Zeit Temperatur Niederschläge Wind Luftdruck Luftfeuchtigkeit
    00:00 +28°C° 0 mm 3 m/S 751 mmHg 46%
    01:00 +27°C° 0 mm 3 m/S 751 mmHg 45%
    02:00 +27°C° 0 mm 3 m/S 751 mmHg 44%
    03:00 +27°C° 0 mm 3 m/S 751 mmHg 44%
    04:00 +27°C° 0 mm 4 m/S 750 mmHg 43%
    05:00 +29°C° 0 mm 3 m/S 750 mmHg 40%
    06:00 +33°C° 0 mm 3 m/S 751 mmHg 38%
    07:00 +35°C° 0 mm 3 m/S 751 mmHg 35%
    08:00 +37°C° 0 mm 3 m/S 751 mmHg 30%
    09:00 +39°C° 0 mm 3 m/S 751 mmHg 25%
    10:00 +42°C° 0 mm 3 m/S 751 mmHg 20%
    11:00 +42°C° 0 mm 3 m/S 751 mmHg 20%
    12:00 +42°C° 0 mm 3 m/S 750 mmHg 20%
    13:00 +43°C° 0 mm 3 m/S 750 mmHg 20%
    14:00 +42°C° 0 mm 3 m/S 750 mmHg 22%
    15:00 +40°C° 0 mm 3 m/S 750 mmHg 25%
    16:00 +39°C° 0 mm 3 m/S 750 mmHg 27%
    17:00 +36°C° 0 mm 3 m/S 750 mmHg 40%
    18:00 +32°C° 0 mm 2 m/S 750 mmHg 53%
    19:00 +28°C° 0 mm 2 m/S 750 mmHg 65%
    20:00 +27°C° 0 mm 2 m/S 750 mmHg 68%
    21:00 +26°C° 0 mm 2 m/S 750 mmHg 71%
    22:00 +25°C° 0 mm 3 m/S 750 mmHg 74%
    23:00 +25°C° 0 mm 3 m/S 750 mmHg 75%

    2 Juli, Sonntag

    Zeit Temperatur Niederschläge Wind Luftdruck Luftfeuchtigkeit
    00:00 +24°C° 0 mm 2 m/S 750 mmHg 76%
    01:00 +24°C° 0 mm 2 m/S 750 mmHg 77%
    02:00 +24°C° 0 mm 2 m/S 750 mmHg 77%
    03:00 +24°C° 0 mm 2 m/S 750 mmHg 77%
    04:00 +24°C° 0 mm 2 m/S 749 mmHg 77%
    05:00 +26°C° 0 mm 2 m/S 749 mmHg 67%
    06:00 +29°C° 0 mm 3 m/S 749 mmHg 56%
    07:00 +33°C° 0 mm 3 m/S 749 mmHg 45%
    08:00 +34°C° 0 mm 3 m/S 749 mmHg 42%
    09:00 +35°C° 0 mm 4 m/S 749 mmHg 39%
    10:00 +36°C° 0 mm 5 m/S 749 mmHg 36%
    11:00 +36°C° 0 mm 4 m/S 749 mmHg 40%
    12:00 +35°C° 0 mm 4 m/S 749 mmHg 43%
    13:00 +34°C° 0 mm 4 m/S 748 mmHg 47%
    14:00 +34°C° 0 mm 5 m/S 748 mmHg 47%
    15:00 +33°C° 0 mm 5 m/S 748 mmHg 48%
    16:00 +33°C° 0 mm 6 m/S 748 mmHg 48%
    17:00 +30°C° 0,1 mm 6 m/S 748 mmHg 55%
    18:00 +28°C° 0,1 mm 6 m/S 748 mmHg 61%
    19:00 +26°C° 0,1 mm 5 m/S 748 mmHg 68%
    20:00 +23°C° 0 mm 5 m/S 748 mmHg 73%
    21:00 +22°C° 0 mm 4 m/S 748 mmHg 78%
    22:00 +20°C° 0 mm 4 m/S 749 mmHg 84%
    23:00 +20°C° 0,1 mm 4 m/S 749 mmHg 85%
    Mehr zeigen